COSMOS 2251 DEB, 33894

Orbit data source: Space-Track

COSMOS 2251 DEB, 33894 is space debris in LEO originally from a launch on Wed, 16 Jun 1993 UTC launched from the Plesetsk Missile And Space Complex (PKMTR). The debris from Iridium 33, an American commercial communications satellite, has been tracked extensively since its accidental collision with the defunct Russian satellite Cosmos 2251 in 2009. This event, occurring at high speed in low Earth orbit (LEO), generated thousands of pieces of space debris, significantly increasing the risk of further collisions. The Iridium 33 debris cloud has impacted space traffic management and orbital debris mitigation strategies, making it a subject of ongoing study in space situational awareness.

Loading next visibility...
Identifier
33894, 1993-036CX
Orbit
LEO
Country
Flag of CISCIS
Related business
Manufacturer
Unknown
Mission
Spacecraft
Bus & Motor
Unknown
Mass
Unknown
Launch date (UTC)
1993-06-16 (33 years ago)
Launch vehicle
Unknown
Launch site
Plesetsk Missile And Space Complex (PKMTR)
Object type
Payload
Rocket body
Debris
Shape & HBR
Unknown shape, 0.1 m
Radar Cross Section
Small (<0.1 m²)

Expand to show TLE details & history
Last TLE update: 10 hours ago

TLE from 10 hours ago
0 COSMOS 2251 DEB
1 33894U 93036CX  26048.68581637  .00001426  00000-0  14734-2 0  9996
2 33894  73.7626 245.4867 0573319 155.3101 207.6635 13.21418884815924
Epoch: 2026-02-17T16:27Z
TLE epoch observation values (Epoch: 2026-02-17T16:27:34.534Z)
Latitude
-0.00002°
Longitude
-149.06946°
Altitude
1,570.565 km
Speed
6.898 km/s
True Right ascension
16h 21m 56s
True Declination
0° 00' 00"
Sunlit
Object was in daylight at epoch
Visualization orbit readout
Latitude
Unknown
Longitude
Unknown
Altitude
Unknown
Speed
Unknown
Apparent Right ascension
Unknown
Apparent Declination
Unknown
Sunlit
N/A
Visualization observer readout
Local Sidereal Time
05:21:33
Azimuth
Unknown
Elevation
Unknown
Doppler factor
Unknown
Orbital elements
Apogee altitude
1,610.223 km
Perigee altitude
743.915 km
Semi-major axis
7,555.206 km
Eccentricity
0.05733
Inclination
73.7626°
RAAN
245.4867°
Arg. of periapsis
155.3101°
True anomaly
204.79694°
Mean anomaly
207.6635°
Eccentric anomaly
206.21256°
Mean motion
3.30502 °/min
Orbital period
108.93 mins
BSTAR
0.0014734
Loading maneuver chart data...
Computing Atmospheric mass density...

Documentation

Showing up to 5 results
|